SXM-7

Last updated on Sun Jun 21 2026 00:03:08 GMT+0000 (Coordinated Universal Time)

1 47240U 20096A 26171.38377977 -.00000209 00000+0 00000+0 0 9992 2 47240 0.0324 103.0766 0003937 23.9681 194.5424 1.00266556 7470
UTC large
Height (km)
Speed (km/s)
/
Latitude / Longitude
Inclination (degrees)
Orbital Period (minutes)
Azimuth
Elevation
Range (km)
Doppler Factor

Next 0 passes for location: London (51.5072 / 0.1276)

No passes found over London.
SXM-7